Theta_e
296 299 299 297 297 296 293 293 291 293 295 297 303 304 308 305 303 301 301 301 300 298 297 297 297 297 298 297 297 296 296 296 296 297 297 298 297 296 295 295 295 296 299 300
293 298 298 296 298 298 298 296 295 295 295 300 303 306 306 305 303 301 301 301 300 299 298 297 297 298 297 296 296 296 296 296 297 297 298 297 296 294 293 293 293 296 297 296
288 296 295 290 295 298 295 297 297 293 297 301 303 305 307 305 305 303 303 301 299 298 298 298 298 297 296 296 296 295 295 296 297 297 298 298 294 293 292 292 293 294 295 294
289 290 284 293 299 299 298 299 300 300 303 303 303 302 303 307 305 304 302 301 300 299 298 298 298 298 297 297 296 295 295 296 297 298 297 297 293 292 292 291 292 292 293 293
288 286 291 296 299 298 296 295 302 302 305 303 303 304 302 302 305 302 301 300 300 298 298 297 297 297 296 295 295 295 296 296 297 298 297 297 293 292 292 291 291 292 293 293
288 286 284 294 300 303 300 291 303 304 304 302 303 298 300 300 301 299 299 300 298 298 298 298 297 297 295 295 294 295 296 297 297 297 296 296 293 292 292 291 292 292 293 293
286 286 291 298 303 303 290 290 303 305 305 303 302 301 298 299 298 299 299 300 300 299 299 298 297 296 295 294 294 296 297 296 296 296 295 296 293 292 292 292 292 292 292 293
288 286 286 302 304 297 299 302 306 305 304 303 298 298 298 298 297 298 299 300 299 298 297 297 296 295 294 294 296 297 297 296 295 295 295 296 293 292 292 292 292 291 291 292
292 291 298 303 303 304 306 306 306 305 304 300 298 297 297 297 297 298 299 299 299 297 296 296 297 296 295 295 297 296 294 294 293 294 295 296 293 292 291 291 291 291 291 290
295 297 301 305 307 309 308 306 307 305 302 301 299 298 298 297 298 298 299 299 298 297 297 297 298 298 296 297 297 294 293 293 292 293 294 292 293 292 290 290 291 291 291 290
295 299 304 306 307 307 307 307 305 304 303 301 300 299 299 298 299 300 300 299 298 297 296 297 298 298 297 298 298 295 293 292 292 292 291 291 291 292 292 292 292 292 291 290
294 300 301 302 307 309 306 305 304 303 301 302 302 300 300 299 301 300 298 297 296 296 296 298 298 298 298 299 298 296 295 294 292 291 291 290 290 290 291 291 291 291 290 290
300 304 305 307 310 311 308 306 305 304 303 302 302 301 300 298 298 299 298 297 296 297 299 298 298 297 299 299 298 297 295 295 291 290 291 289 290 290 289 293 292 292 291 291
307 307 304 308 306 311 311 308 308 306 305 304 303 302 299 297 298 298 297 298 298 299 298 297 298 298 299 298 297 295 295 293 291 290 290 289 289 291 290 292 292 293 293 292
305 307 305 308 308 308 310 307 306 305 305 304 303 301 299 298 297 298 299 299 299 298 298 298 298 299 300 298 294 294 294 294 293 291 290 290 290 291 292 293 293 293 293 293
299 307 308 306 308 308 308 307 306 306 306 305 301 300 301 300 299 299 298 298 296 296 298 298 299 300 300 296 293 294 293 291 290 291 292 292 292 292 293 293 292 292 293 293
300 302 302 303 305 306 307 308 308 308 306 306 302 301 300 299 298 297 297 298 298 298 299 299 299 300 300 298 295 293 292 292 286 292 292 293 293 292 293 293 293 293 292 292
301 302 304 304 303 303 303 307 308 308 304 303 302 301 299 298 297 295 296 297 297 297 297 298 299 299 296 295 294 292 291 291 292 292 293 293 293 294 294 293 293 293 294 294
294 296 303 304 303 303 306 305 305 305 304 303 300 299 299 298 297 296 296 296 295 294 296 299 296 295 294 294 291 290 291 291 292 293 294 291 294 294 293 293 294 294 294 294
302 305 306 305 306 307 306 306 304 303 303 302 300 298 297 297 297 297 296 296 296 297 297 296 295 294 293 291 289 290 291 292 293 294 294 293 293 293 293 291 293 293 293 293
300 303 306 307 306 307 307 307 304 303 303 302 300 298 297 297 298 297 295 295 297 296 295 293 294 293 292 289 291 293 293 293 293 294 293 293 293 293 294 294 293 292 292 293
298 301 305 307 306 306 307 307 306 304 303 301 300 299 298 296 296 296 297 297 296 287 293 293 293 288 289 286 292 293 294 294 293 294 293 293 293 293 293 293 292 292 292 292
297 300 305 306 306 306 307 306 305 304 302 302 300 299 298 297 297 296 296 297 296 290 293 293 285 284 284 291 293 293 294 294 293 293 293 294 293 293 293 292 291 291 291 290
296 300 305 308 307 306 304 304 305 304 304 303 302 300 298 297 296 297 296 289 286 289 292 289 286 284 286 291 292 293 293 293 293 293 294 289 293 293 292 291 290 290 290 289
295 299 306 307 306 306 304 305 304 303 302 301 301 300 299 299 299 295 294 291 285 290 290 284 285 285 291 291 292 291 291 292 292 293 293 293 293 292 291 290 290 289 289 289
294 296 301 307 306 307 306 305 303 303 302 300 299 298 296 296 294 293 293 291 291 288 290 290 291 290 290 290 290 290 291 292 293 292 291 292 292 291 290 289 289 289 289 289
294 291 300 306 307 307 306 304 303 302 301 301 297 296 295 294 293 293 290 292 291 290 290 290 290 289 290 290 290 291 291 291 288 291 291 291 290 289 288 288 288 288 289 289
Wind_Speed
4 3 4 4 3 2 2 5 5 3 7 7 13 15 14 8 8 10 10 8 6 5 4 3 2 1 3 3 3 4 5 5 6 5 5 5 7 8 8 7 7 6 6 7
4 3 6 4 1 4 4 5 3 4 7 4 4 7 8 10 12 12 11 10 8 7 6 5 3 2 2 3 4 4 5 5 6 6 5 6 6 8 7 8 7 5 6 7
3 1 5 3 5 5 1 2 5 3 7 3 3 5 7 9 12 13 12 11 9 8 6 6 3 5 1 3 4 5 4 5 6 5 5 5 6 7 7 7 5 6 7 7
3 3 2 6 3 1 4 2 3 4 4 3 2 3 4 3 9 10 12 11 8 6 6 5 3 2 2 4 4 4 5 5 5 5 5 4 5 6 6 4 5 5 6 7
6 4 4 1 4 7 6 7 6 5 2 2 3 2 3 4 4 7 8 9 8 7 5 5 4 0 4 4 5 4 5 5 6 5 4 3 4 5 4 4 4 4 4 7
3 5 7 9 3 4 5 5 7 6 6 7 5 2 4 4 6 9 10 10 10 8 4 5 5 2 3 4 4 5 5 7 6 5 4 3 3 3 3 3 3 5 7 6
3 3 6 7 5 3 5 10 6 7 7 8 6 2 5 8 7 8 9 11 9 7 5 4 5 6 2 3 5 5 5 5 5 5 4 4 3 2 2 3 4 5 7 8
4 3 6 6 4 8 8 0 5 5 5 6 7 8 8 8 9 10 11 10 8 5 4 4 5 3 3 3 5 5 5 5 6 6 4 3 4 3 1 3 3 4 5 6
8 8 4 4 3 1 4 6 4 4 3 7 11 6 10 9 9 8 9 8 6 6 5 3 4 4 1 3 5 5 5 6 6 6 5 4 4 4 2 2 3 3 3 5
3 2 4 3 1 3 3 4 5 4 7 8 9 12 11 9 8 8 9 8 6 7 6 5 4 4 3 3 3 4 5 6 6 5 6 5 3 2 2 3 3 3 3 5
2 3 2 1 3 3 4 7 10 7 6 8 13 11 11 8 8 7 6 5 4 5 5 4 3 3 2 3 2 4 4 4 5 4 5 5 4 4 3 4 4 3 3 3
5 3 2 2 2 1 5 5 7 9 6 6 6 11 9 8 7 6 5 4 3 3 3 3 3 2 3 3 3 3 4 4 4 4 4 3 4 6 5 9 7 7 9 8
3 3 3 2 3 0 3 4 4 7 7 10 7 9 7 5 6 7 5 5 5 6 4 3 2 1 3 3 4 4 3 4 3 4 3 3 3 3 5 5 5 5 7 8
4 5 2 3 3 4 2 7 7 6 7 9 8 7 6 6 5 7 7 7 5 5 4 3 2 1 3 4 3 4 4 4 2 3 3 3 3 4 3 2 4 5 6 8
5 4 3 6 4 3 4 6 6 5 8 8 7 8 8 8 7 6 6 6 5 5 4 3 1 3 3 3 4 5 4 3 2 2 3 3 3 3 2 3 4 5 5 6
3 4 4 5 6 6 7 6 6 6 7 7 9 8 8 7 7 7 7 7 7 5 5 3 0 2 3 3 5 3 3 4 2 3 4 5 4 4 3 4 5 5 5 6
6 4 4 4 7 7 7 7 7 8 8 10 10 10 10 9 7 7 5 5 4 5 4 2 2 3 3 2 2 2 2 2 4 3 5 4 4 3 4 4 5 5 6 6
5 5 7 5 7 7 5 7 7 7 8 9 11 11 11 11 10 8 6 6 5 4 3 1 3 3 4 3 3 2 2 3 4 4 4 4 4 4 4 5 6 6 7 6
6 7 8 8 7 4 3 5 6 7 9 10 11 11 10 9 10 8 7 6 5 4 1 2 2 3 4 3 3 2 3 3 3 3 4 4 5 5 5 5 6 7 8 7
5 4 5 8 6 7 6 5 8 8 9 10 11 10 9 8 9 9 6 5 3 2 3 2 3 3 4 4 5 3 3 3 3 3 4 4 4 5 6 6 7 8 7 6
9 8 5 4 3 5 8 9 9 10 10 12 12 11 10 8 9 9 7 4 2 2 5 5 3 2 2 3 4 3 3 3 3 3 4 4 5 5 5 7 7 7 7 6
7 8 6 2 4 4 5 8 7 9 10 10 10 11 11 9 9 5 3 4 3 4 3 3 2 3 3 5 3 4 3 3 3 3 4 4 4 5 6 7 7 7 7 7
7 6 5 2 2 5 7 7 10 10 11 10 12 11 9 7 6 7 4 2 4 4 3 2 4 4 6 4 4 3 4 5 5 5 4 4 4 5 6 7 7 7 6 7
6 6 2 2 3 6 9 5 8 7 8 9 9 11 12 7 4 3 5 6 7 5 4 3 4 6 5 3 4 4 4 5 5 5 4 5 5 5 6 6 6 6 6 7
5 6 1 4 6 5 8 9 11 10 10 9 9 8 8 4 6 4 5 4 6 6 5 5 6 5 4 4 4 4 5 5 4 5 5 5 5 5 5 6 6 6 6 6
4 3 4 1 3 4 7 7 8 8 12 6 6 6 6 6 7 6 5 6 6 7 5 3 4 4 4 4 4 6 5 5 5 5 5 5 5 5 5 6 6 7 6 6
4 3 3 1 3 3 6 8 8 7 8 7 8 5 8 6 7 7 8 7 5 5 4 4 4 5 5 5 5 5 5 5 6 5 5 5 5 5 5 5 6 6 7 6
Wind_Direction
79 74 97 111 131 188 97 142 136 223 208 245 214 207 205 169 148 157 162 157 137 150 132 91 75 235 118 51 10 9 2 345 333 321 316 351 342 341 323 336 340 332 334 337
58 36 109 115 132 192 192 154 249 152 252 242 340 123 162 176 165 170 170 152 156 146 139 135 139 317 355 52 359 15 347 323 313 320 336 14 331 343 330 354 355 352 354 344
186 316 176 17 234 182 148 146 126 169 241 333 297 236 200 180 175 174 161 156 155 160 153 139 175 154 335 359 360 343 341 311 303 311 3 343 354 337 347 354 340 345 342 340
128 39 79 252 342 9 136 133 204 236 239 235 238 94 19 150 174 159 156 151 143 122 132 122 104 56 323 5 339 334 329 302 304 347 358 331 8 340 344 345 338 330 329 341
130 170 282 195 197 147 168 243 195 215 170 102 117 91 323 348 116 142 138 122 127 133 131 128 136 169 39 347 319 323 319 316 330 350 323 4 332 333 335 333 338 337 325 340
122 136 198 235 242 157 117 289 189 178 182 167 170 157 252 129 109 109 116 129 131 126 126 136 157 99 51 295 309 322 331 320 315 315 328 299 272 311 322 309 331 347 348 343
118 184 288 249 219 141 112 237 171 172 182 169 191 172 118 111 88 112 124 125 125 131 142 208 132 100 258 295 313 311 306 312 320 326 336 257 257 252 313 336 3 3 357 346
94 91 264 177 87 160 208 37 161 172 172 151 108 107 110 110 116 123 126 128 130 138 171 168 107 128 250 302 301 317 322 319 332 342 329 261 253 266 294 334 357 4 356 346
166 208 245 276 247 114 152 144 171 149 123 124 127 128 132 132 131 132 139 147 152 142 142 135 162 196 279 308 336 324 336 343 338 335 322 300 269 269 273 296 312 325 338 334
89 269 276 309 56 72 51 100 111 95 128 133 129 141 139 139 145 153 154 157 153 154 156 158 202 212 227 303 309 8 358 343 337 332 325 317 297 263 252 258 272 292 320 319
263 283 292 311 27 118 88 90 97 94 116 134 140 147 148 149 162 160 151 134 142 164 166 183 194 250 342 323 9 3 342 327 327 322 320 313 303 275 252 238 214 264 285 287
216 225 164 282 331 87 122 125 131 126 118 132 138 146 142 150 150 141 149 140 152 175 163 200 194 283 342 339 45 0 316 326 324 323 314 327 323 321 243 246 262 256 266 257
183 185 190 218 242 75 91 115 142 135 133 140 133 144 144 139 152 145 148 159 179 185 175 164 177 310 319 337 12 344 303 304 321 312 314 338 334 339 327 334 17 45 6 357
179 145 122 145 212 198 157 136 131 112 119 126 141 127 134 135 142 151 167 184 168 141 144 162 195 332 328 346 338 335 304 290 321 300 325 333 328 335 340 359 0 348 342 335
195 206 179 130 122 106 125 132 139 150 151 140 135 146 143 147 151 165 152 148 129 134 143 167 138 355 332 331 349 327 320 324 324 322 354 356 351 358 36 29 10 352 341 344
215 167 151 166 165 144 139 167 156 172 169 142 139 159 151 146 137 141 142 142 141 173 175 178 87 316 323 17 354 332 329 360 25 16 7 13 13 23 30 10 3 354 344 326
128 154 202 217 200 178 189 173 174 184 158 166 155 145 140 127 123 128 139 138 148 144 159 167 251 307 347 23 337 343 344 1 21 37 32 29 22 33 6 357 348 339 321 306
221 223 227 224 210 206 193 165 163 162 168 149 135 143 136 149 160 150 149 133 123 123 126 200 305 333 18 33 68 47 42 30 35 34 46 27 22 7 358 349 342 333 332 336
252 239 215 226 238 255 70 142 153 144 136 141 144 150 150 148 144 139 133 139 146 131 171 306 12 37 60 56 87 53 47 43 51 55 46 28 15 4 354 345 349 350 346 351
37 7 278 252 205 184 166 156 145 138 143 134 121 126 130 135 134 134 137 139 150 175 128 100 70 87 78 58 63 56 48 50 67 61 43 31 14 0 352 357 357 354 346 357
22 9 345 267 210 162 164 152 150 140 141 141 142 144 146 140 128 134 124 137 151 142 114 89 95 98 82 78 60 50 45 61 63 44 37 17 355 1 5 3 360 355 348 346
2 1 350 31 130 123 136 127 131 131 132 117 118 123 131 129 119 94 79 141 148 143 111 74 89 116 112 85 68 54 45 51 40 33 21 0 2 9 11 6 359 353 348 347
348 342 344 7 141 146 127 149 133 141 132 139 138 145 144 135 148 137 122 112 133 132 105 83 121 110 84 77 74 60 47 47 41 35 26 21 22 20 17 9 359 349 348 347
330 338 16 105 85 131 126 119 120 117 123 120 126 132 129 126 75 57 94 121 118 120 91 110 94 77 76 76 69 58 47 42 33 28 25 25 24 24 23 10 2 350 345 347
326 324 318 118 101 106 104 119 110 110 101 90 115 102 100 82 117 141 118 106 106 103 99 75 77 72 74 66 59 55 48 38 32 31 24 23 23 24 20 9 4 351 342 345
320 329 335 293 136 113 133 127 127 130 112 127 95 102 91 97 108 110 98 101 102 105 103 98 89 81 68 61 52 50 48 41 37 34 26 23 26 24 14 4 4 357 344 341
291 337 321 92 118 102 119 112 122 124 114 134 114 104 111 111 109 109 108 103 98 95 94 86 79 76 72 59 53 49 46 43 36 31 27 25 26 19 7 3 1 351 348 349